STARLINK-4568, 53622

Orbit data source: Space-Track

STARLINK-4568, 53622 is a payload satellite owned by SpaceX/Seattle (US) in LEO that was launched on Sun, 28 Aug 2022 UTC via an FALCON 9 launch vehicle from the Air Force Eastern Test Range (AFETR). Payload-class satellites include a variety of spacecraft equipped with specific instruments for various scientific and technological missions. These include communications satellites like Starlink; space stations such as the ISS; scientific satellites like the Hubble; Earth observation satellites from companies like Planet Labs, Umbra, and HawkEye 360; GPS; miniature CubeSats for education and research; and military/defense satellites.

Loading next visibility...
Identifier
53622, 2022-104AL
Orbit
LEO
Last TLE update
18 hours ago
Origin
Manufacturer
SpaceX/Seattle
Mission
Operational Commercial Communications
Bus & Motor
STARLINK, Unknown motor
Mass
300 kg wet, ~290 kg dry
Launch date (UTC)
2022-08-28 (3 years ago)
Launch vehicle
FALCON 9
Launch site
Air Force Eastern Test Range (AFETR)
Object type
Payload
Rocket body
Debris
Shape & HBR
Box + 1 Pan, 8.86 m
Radar Cross Section
13.562 m², Large (>1 m²)

Expand to show TLE details & history

TLE from 18 hours ago
0 STARLINK-4568
1 53622U 22104AL  25181.66610834  .00000335  00000-0  39128-4 0  9996
2 53622  53.2193 285.1031 0001277  81.1589 278.9548 15.08840332157709
Epoch: 2025-06-30T15:59Z
TLE epoch observation values (Epoch: 2025-06-30T15:59:11.76Z)
Latitude
-0.00001°
Longitude
126.33145°
Altitude
540.503 km
Speed
7.593 km/s
True Right ascension
19h 00m 24s
True Declination
0° 00' 00"
Sunlit
Object was in full shadow at epoch
Visualization orbit readout
Latitude
12.17062°
Longitude
-66.3031°
Altitude
539.74 km
Speed
7.595 km/s
Apparent Right ascension
07h 41m 04s
Apparent Declination
-14° 10' 51"
Sunlit
Object is in daylight
Visualization observer readout
Local Sidereal Time
21:50:27
Azimuth
56.937° ENE
Elevation
-51.76°
Doppler factor
1
Orbital elements
Apogee altitude
540.87 km
Perigee altitude
539.104 km
Semi-major axis
6,918.124 km
Eccentricity
0.00013
Inclination
53.2193°
RAAN
285.1031°
Arg. of periapsis
81.1589°
True anomaly
Unknown
Mean anomaly
278.9548°
Eccentric anomaly
Unknown
Mean motion
3.7719 °/min
Orbital period
95.44 mins
BSTAR
0.000039128
Loading maneuver chart data...
Loading SW <> Apogee altitude chart data...
Loading historical data...
Loading historical data...
Loading historical data...
Loading historical data...
Loading historical data...
Loading historical data...
Loading historical data...

STARLINK-4568 Visibility forecast

Observer location: undefined°, undefined°

Span
Click to sort rows by Start time (UTC) header in descending order
Start Az.
Max El. time (UTC)
Max El. Az.
Max El.
End time (UTC)
End Az.
5 mins2025-07-01 11:20:02.984Z297.693° NW2025-07-01 11:22:02.984Z333.394° NNW19.478°2025-07-01 11:25:02.984Z24.929° NE
4 mins2025-07-01 14:42:02.984Z352.954° N2025-07-01 14:43:02.984Z11.512° NNE18.347°2025-07-01 14:46:02.984Z64.151° ENE
6 mins2025-07-01 16:21:02.984Z313.446° NW2025-07-01 16:23:02.984Z337.751° N43.897°2025-07-01 16:27:02.984Z127.931° SE
6 mins2025-07-02 09:31:02.984Z239.266° WSW2025-07-02 09:34:02.984Z357.515° N42.844°2025-07-02 09:37:02.984Z45.18° ENE
|